Location: Unspecified
(0.0000°N, 0.0000°E)
Time: 05:04:08
(UTC+00:00)

XW-2C - Visible Passes

Search period start: 18 May 2021 00:00
Search period end: 28 May 2021 00:00
Orbit: 507 x 525 km, 97.5° (Epoch: 17 May)

Date Brightness Start Highest point End Pass type
(mag) Time Alt. Az. Time Alt. Az. Time Alt. Az.
18 May ? 05:26:22 10° NNE 05:30:07 62° E 05:33:51 10° S visible
19 May ? 05:11:54 10° NE 05:15:22 34° ESE 05:18:48 10° SSE visible
20 May ? 04:57:47 10° NE 05:00:36 20° E 05:03:26 10° SSE visible
20 May ? 18:24:53 10° SW 18:27:00 15° WSW 18:29:08 10° WNW visible
21 May ? 04:44:22 10° ENE 04:45:51 12° ESE 04:47:21 10° SE visible
24 May ? 05:31:36 10° NNE 05:35:21 77° E 05:39:07 10° S visible
25 May ? 05:17:02 10° NNE 05:20:35 42° E 05:24:09 10° S visible
26 May ? 05:02:45 10° NE 05:05:49 24° ESE 05:08:54 10° SSE visible
26 May ? 18:30:39 10° SW 18:32:12 12° WSW 18:33:46 10° WNW visible
27 May ? 04:48:58 10° ENE 04:51:03 14° ESE 04:53:09 10° SE visible
